Tampa, FL

10:28 PM EST on December 10, 2017 (GMT -0500)
Tampa International

Weather History for KTPA - October, 2012

Change the Weather History Date:

Monday, October 15, 2012

  Actual Average Record
Temperature  
Mean Temperature 81 °F 76 °F  
Max Temperature 89 °F 85 °F 92 °F (1990)
Min Temperature 72 °F 68 °F 47 °F (1977)
Degree Days  
Heating Degree Days 0 0  
Month to date heating degree days 0 0  
Since 1 July heating degree days 0 0  
Cooling Degree Days 16 12  
Month to date cooling degree days 222 197  
Year to date cooling degree days 3651 3213  
Growing Degree Days 30 (Base 50)    
Moisture  
Dew Point 70 °F    
Average Humidity 69    
Maximum Humidity 87    
Minimum Humidity 51    
Precipitation  
Precipitation 0.00 in 0.06 in 2.78 in (1895)
Month to date precipitation 3.00 1.35  
Year to date precipitation 53.53 41.37  
Sea Level Pressure  
Sea Level Pressure 29.91 in    
Wind  
Wind Speed 5 mph (NNW)    
Max Wind Speed 15 mph    
Max Gust Speed 21 mph    
Visibility 10 miles    
Events      
T = Trace of Precipitation, MM = Missing Value Source: NWS Daily Summary

Daily Weather History Graph

Daily Weather History Graph

Search for Another Location

Airport or City:

Trip Planner

Search our weather history database for the weather conditions in past years. The results will help you decide how hot, cold, wet, or windy it might be!

Date:

Astronomy

Oct. 15, 2012 Rise Set
Actual Time 7:30 AM EDT 7:00 PM EDT
Civil Twilight 7:07 AM EDT 7:23 PM EDT
Nautical Twilight 6:39 AM EDT 7:51 PM EDT
Astronomical Twilight 6:12 AM EDT 8:18 PM EDT
Moon 7:35 AM EDT (10/15) 7:06 PM EDT (10/15)
Length of Visible Light 12h 16m
Length of Day
11h 29m
New Moon, 0% of the Moon is Illuminated
Oct 15
New Moon
Oct 21
First Quarter
Oct 29
Full
Nov 6
Last Quarter
Nov 13
New

Hourly Weather History & Observations

Time (EDT) Temp. Heat Index Dew Point Humidity Pressure Visibility Wind Dir Wind Speed Gust Speed Precip Events Conditions
12:53 AM 75.9 °F - 69.1 °F 79% 30.00 in 10.0 mi NNE 3.5 mph - N/A   Clear
1:53 AM 75.0 °F - 69.1 °F 82% 29.98 in 10.0 mi NNE 3.5 mph - N/A   Clear
2:53 AM 73.9 °F - 69.1 °F 85% 29.96 in 10.0 mi Calm Calm - N/A   Clear
3:53 AM 73.0 °F - 69.1 °F 87% 29.94 in 10.0 mi North 3.5 mph - N/A   Clear
4:53 AM 73.0 °F - 70.0 °F 90% 29.94 in 10.0 mi North 5.8 mph - N/A   Mostly Cloudy
5:53 AM 73.9 °F - 70.0 °F 87% 29.93 in 10.0 mi Calm Calm - N/A   Scattered Clouds
6:53 AM 73.9 °F - 70.0 °F 87% 29.94 in 10.0 mi NNE 3.5 mph - N/A   Mostly Cloudy
7:53 AM 75.0 °F - 71.1 °F 87% 29.94 in 10.0 mi NNE 4.6 mph - N/A   Mostly Cloudy
8:53 AM 77.0 °F - 71.1 °F 82% 29.95 in 10.0 mi NNE 4.6 mph - N/A   Scattered Clouds
9:53 AM 80.1 °F 83.6 °F 71.1 °F 74% 29.97 in 10.0 mi Calm Calm - N/A   Scattered Clouds
10:53 AM 82.0 °F 86.3 °F 71.1 °F 69% 29.97 in 10.0 mi Calm Calm - N/A   Mostly Cloudy
11:53 AM 84.9 °F 90.1 °F 71.1 °F 63% 29.96 in 10.0 mi North 3.5 mph - N/A   Mostly Cloudy
12:53 PM 82.9 °F 88.0 °F 72.0 °F 69% 29.93 in 10.0 mi WSW 8.1 mph - N/A   Mostly Cloudy
1:53 PM 82.9 °F 88.0 °F 72.0 °F 69% 29.90 in 10.0 mi WSW 8.1 mph - N/A   Mostly Cloudy
2:53 PM 84.0 °F 89.6 °F 72.0 °F 67% 29.87 in 10.0 mi WSW 9.2 mph - N/A   Mostly Cloudy
3:53 PM 87.1 °F 91.3 °F 69.1 °F 55% 29.84 in 10.0 mi NW 9.2 mph - N/A   Mostly Cloudy
4:53 PM 86.0 °F 88.8 °F 66.9 °F 53% 29.83 in 10.0 mi NNW 11.5 mph - N/A   Mostly Cloudy
5:53 PM 82.9 °F 84.6 °F 64.9 °F 54% 29.83 in 10.0 mi NNW 12.7 mph - N/A   Mostly Cloudy
6:53 PM 81.0 °F 83.3 °F 66.9 °F 62% 29.84 in 10.0 mi NNW 8.1 mph - N/A   Scattered Clouds
7:53 PM 79.0 °F - 69.1 °F 72% 29.85 in 10.0 mi NW 6.9 mph - N/A   Scattered Clouds
8:53 PM 77.0 °F - 71.1 °F 82% 29.87 in 10.0 mi North 4.6 mph - N/A   Partly Cloudy
9:53 PM 75.9 °F - 72.0 °F 87% 29.88 in 10.0 mi NNW 6.9 mph - N/A   Partly Cloudy
10:53 PM 75.0 °F - 72.0 °F 90% 29.88 in 10.0 mi NNW 4.6 mph - N/A   Clear
11:53 PM 75.0 °F - 71.1 °F 87% 29.88 in 10.0 mi North 3.5 mph - N/A   Clear